Temperature
13 12 12 12 12 12 11 11 11 11 11 11 11 10 10 10 10 10 10 10 10 10 10 10 9 9 9 9 9 9 9 9 9 9 9 9 9 9 9 9 9 9 10
12 12 12 11 11 11 11 11 11 11 10 10 10 10 10 10 9 9 9 9 9 9 9 9 9 9 9 9 9 9 9 8 8 8 9 9 9 9 9 9 9 9 9
12 12 11 11 11 11 11 10 10 10 10 10 10 10 9 9 9 9 9 9 9 9 9 9 9 9 9 9 9 8 8 8 8 8 8 8 8 8 8 8 8 8 9
11 11 11 11 11 10 10 10 10 10 10 9 9 9 9 9 9 9 8 8 8 8 8 8 8 8 8 8 8 8 8 8 8 8 8 8 8 8 8 8 8 8 8
11 11 11 11 10 10 10 10 10 10 9 9 9 9 9 9 8 8 8 8 8 8 8 8 8 8 8 8 8 8 8 7 7 7 7 8 7 7 7 7 7 7 8
11 11 11 10 10 10 10 10 9 9 9 9 9 9 8 8 8 8 8 7 7 7 8 7 7 7 7 7 7 7 7 7 7 7 7 7 7 7 7 7 7 7 7
11 10 10 10 10 10 10 9 9 9 9 9 8 8 8 8 8 8 8 7 7 7 7 7 7 7 7 7 7 7 7 7 7 7 7 7 7 7 7 6 6 6 6
10 10 10 10 10 10 9 9 9 9 9 8 8 8 8 8 8 8 7 7 7 7 7 7 7 7 7 7 6 6 6 6 6 6 6 6 6 6 6 6 6 6 6
10 10 10 10 9 9 9 9 9 8 8 8 8 8 7 7 7 7 7 7 7 7 6 6 6 6 6 6 6 6 6 6 6 6 6 6 6 6 6 6 6 6 6
10 10 9 9 9 9 9 9 8 8 8 8 8 7 7 7 7 7 7 7 6 6 6 6 6 6 6 6 6 6 6 6 6 6 6 6 6 6 6 6 6 6 6
9 9 9 9 9 9 8 8 8 8 8 7 7 7 7 7 7 6 6 6 6 6 6 6 6 6 6 6 5 5 5 5 5 5 5 5 5 5 5 5 5 5 5
9 9 9 8 8 8 8 8 7 7 7 7 7 7 6 6 6 6 6 6 6 6 6 5 5 5 5 5 5 5 5 5 5 5 5 5 5 5 5 5 5 5 5
8 8 8 8 8 8 7 7 7 7 7 7 6 6 6 6 6 6 6 6 5 5 5 5 5 5 5 5 5 5 5 5 4 4 4 4 4 4 4 4 4 4 4
8 8 8 8 7 7 7 7 7 6 6 6 6 6 6 6 5 5 5 5 5 5 5 5 5 5 4 4 4 4 4 4 4 4 4 4 4 4 4 4 4 4 4
8 7 7 7 7 7 7 6 6 6 6 6 6 6 5 5 5 5 5 5 5 5 5 4 4 4 4 4 4 4 4 4 4 4 3 3 3 3 3 3 3 4 4
7 7 7 7 6 6 6 6 6 6 5 5 5 5 5 5 5 5 5 5 5 4 4 4 4 4 4 4 4 4 4 4 3 3 3 3 3 3 3 3 3 3 3
7 7 7 6 6 6 6 5 5 5 5 5 5 5 5 5 4 4 4 4 4 4 4 4 4 3 3 3 3 3 3 3 3 3 3 3 3 3 3 3 3 3 3
6 6 6 6 6 5 5 5 5 5 5 4 4 4 4 4 4 4 4 4 4 3 3 3 3 3 3 3 3 3 3 3 3 3 3 3 2 2 2 2 2 2 2
6 6 6 5 5 5 5 4 4 4 4 4 4 4 4 4 4 4 3 3 3 3 3 3 3 3 3 3 3 3 2 2 2 2 2 2 2 2 2 2 2 2 2
5 5 5 5 5 5 4 4 4 4 4 4 4 4 3 3 3 3 3 3 3 3 3 3 2 2 2 2 2 2 2 2 2 2 2 2 2 2 2 2 1 1 2
5 5 5 4 4 4 4 4 4 4 3 3 3 3 3 3 3 3 3 3 3 2 2 2 2 2 2 2 2 2 2 2 2 2 2 2 1 1 1 1 1 1 1
4 4 4 4 4 4 4 4 4 4 3 3 3 3 3 3 3 3 3 3 2 2 2 2 2 2 2 2 2 2 2 2 2 2 2 1 1 1 1 1 1 1 1
4 4 4 4 3 3 3 3 3 3 3 3 3 3 3 3 3 3 2 2 2 2 2 2 2 2 2 2 2 2 2 2 2 2 1 1 1 1 1 1 1 1 1
3 3 3 3 3 3 3 3 3 3 3 3 3 3 3 3 3 2 2 2 2 2 2 2 2 2 2 2 2 2 2 2 1 1 1 1 1 1 1 1 1 1 1
3 3 3 3 3 3 3 3 3 3 3 3 3 3 3 2 2 2 2 2 2 2 2 2 2 2 1 1 1 1 1 1 1 1 1 1 1 1 1 0 0 0 0
3 3 3 3 2 2 2 2 2 2 2 2 2 2 2 2 2 2 2 2 2 2 1 1 1 1 1 1 1 1 1 1 1 1 1 1 0 0 0 0 0 0 0
Wind_Speed
3 3 3 3 3 3 3 3 3 2 2 2 2 1 1 1 1 2 1 1 1 1 1 0 0 0 0 0 0 1 1 1 2 2 2 2 2 3 4 4 4 4 5
4 4 3 3 3 3 2 2 2 2 2 2 2 2 1 1 1 2 1 0 1 0 1 0 1 0 0 0 0 0 1 1 2 2 2 2 2 2 2 2 3 4 4
3 3 3 3 3 3 2 2 2 2 2 2 2 2 2 1 1 1 2 1 1 1 1 1 1 1 1 1 1 1 1 1 1 1 2 1 2 2 3 3 3 3 4
3 3 3 3 3 3 3 3 2 2 3 2 2 2 2 2 2 2 2 1 1 1 1 1 1 2 2 2 1 1 1 0 0 0 1 1 1 2 1 2 3 3 3
4 3 3 3 3 3 3 3 2 2 2 2 2 1 1 2 2 2 2 2 2 1 1 1 2 2 2 1 1 2 2 1 1 0 1 1 2 1 1 1 2 2 3
4 3 2 2 3 3 3 3 3 2 1 2 2 2 2 2 2 3 2 2 2 2 2 2 2 2 1 1 2 1 2 2 2 1 1 1 2 2 2 2 1 2 3
3 3 3 3 3 3 3 3 3 3 2 2 2 2 2 3 4 4 4 2 2 2 2 2 2 2 1 0 1 1 1 1 2 3 3 3 3 3 2 2 2 2 3
4 4 3 3 3 2 3 3 3 2 3 2 2 2 2 3 3 3 3 2 2 2 3 3 3 3 2 2 1 0 1 2 3 2 3 4 3 3 4 3 3 2 2
4 4 4 4 4 3 3 3 3 3 2 2 2 2 2 3 3 3 2 1 2 2 2 3 3 3 3 3 2 2 2 3 2 2 3 3 3 2 1 1 0 0 2
3 3 3 4 4 4 4 3 2 2 2 2 1 2 2 3 3 3 2 2 2 2 2 3 4 4 3 3 3 3 2 3 2 2 2 3 2 1 1 2 2 2 2
3 3 2 3 4 4 3 2 2 2 2 1 1 1 2 2 3 3 3 2 3 3 3 3 4 4 4 4 4 4 4 3 2 2 1 2 2 1 2 2 2 2 2
2 2 2 2 3 2 3 2 2 2 2 1 1 1 2 2 2 3 4 4 3 3 3 3 4 4 3 4 3 3 3 1 1 1 1 1 2 2 3 3 2 2 3
2 2 2 2 1 2 3 3 2 2 2 2 1 2 2 2 2 3 3 4 3 2 3 4 4 3 2 2 2 2 2 1 1 1 2 2 2 3 2 2 2 2 3
3 2 2 2 1 1 1 2 2 2 2 2 2 2 2 2 2 2 1 2 1 1 1 2 1 0 0 1 1 0 1 2 2 2 3 2 1 1 1 1 1 1 2
3 2 2 2 2 2 1 1 2 3 3 3 3 3 2 2 3 2 0 1 1 1 1 1 1 1 0 0 0 1 1 1 1 2 1 2 2 1 2 1 1 1 1
3 2 2 2 2 1 1 0 1 1 1 1 1 2 2 2 1 0 0 0 1 2 3 1 0 1 1 1 1 2 1 2 2 2 2 2 2 2 2 2 1 1 2
3 3 2 2 2 2 1 1 1 2 2 1 1 1 1 1 0 1 1 1 2 3 1 1 1 1 1 1 2 2 2 2 2 2 2 2 2 2 2 2 2 2 3
3 3 3 3 3 2 2 2 2 1 0 1 2 1 1 0 1 1 1 3 1 1 0 0 1 1 1 2 2 2 2 2 1 2 2 2 2 2 2 2 2 3 3
3 2 2 2 2 2 2 2 2 2 1 1 1 2 2 1 1 2 3 2 1 1 1 1 1 1 2 2 2 2 2 2 2 2 2 2 2 2 2 2 3 4 4
2 2 2 2 2 2 2 2 2 2 2 2 2 2 0 1 1 0 0 1 1 1 2 2 2 2 2 2 2 2 2 2 2 2 2 2 2 2 3 3 3 3 3
1 2 2 1 2 2 2 3 3 2 3 3 3 3 2 2 2 2 2 2 2 3 2 2 2 3 2 2 2 3 3 3 3 3 3 3 3 3 3 3 3 4 3
2 2 2 2 2 2 2 2 2 2 3 3 2 2 3 2 2 3 3 3 3 3 3 3 3 3 3 3 3 3 4 4 4 4 4 3 3 3 3 3 3 3 3
2 2 1 1 1 1 1 1 2 2 2 3 2 2 2 3 3 3 4 3 3 3 4 4 3 3 4 4 5 4 4 4 4 4 4 4 3 3 3 4 4 4 4
2 2 1 1 1 1 1 1 2 2 2 2 3 3 3 3 3 4 4 3 3 4 4 4 4 5 5 5 5 5 6 6 5 5 6 5 4 4 4 4 4 5 5
1 2 2 1 1 1 1 2 2 2 2 3 3 3 3 3 4 4 3 3 4 4 5 5 5 5 6 6 6 6 7 7 6 5 5 4 4 4 4 4 4 4 4
2 2 2 2 2 2 2 2 2 3 3 3 3 3 3 3 4 4 3 4 4 5 5 5 6 7 7 7 8 8 7 7 6 6 4 4 3 3 3 4 4 4 4
Wind_Direction
168 166 154 160 158 151 158 172 170 156 147 149 149 142 146 146 132 121 133 130 112 13 359 105 290 111 64 1 83 109 145 162 219 277 283 307 330 348 352 355 352 354 348
169 161 161 158 151 150 170 178 164 160 161 165 157 160 172 153 145 151 155 142 162 234 283 231 261 170 125 249 143 179 209 202 199 257 297 316 315 322 340 348 358 355 349
162 160 162 160 160 170 180 174 165 162 169 169 162 177 190 182 167 174 169 178 198 220 226 230 254 197 229 242 216 225 239 257 201 211 277 296 312 334 342 338 348 353 349
157 162 176 183 181 182 176 170 183 180 175 179 184 188 187 178 172 168 158 164 180 226 241 242 241 224 224 221 218 226 208 153 134 155 294 312 314 322 349 330 330 336 332
160 172 195 191 176 167 167 173 183 190 186 173 168 178 179 186 188 173 172 179 178 209 269 273 257 238 237 224 244 210 179 176 183 204 305 336 326 332 307 284 297 310 309
167 184 182 173 170 169 172 169 169 180 181 165 181 191 207 229 216 204 193 188 196 207 242 273 271 273 271 281 295 230 186 187 194 201 255 268 273 278 290 280 281 322 301
174 182 172 171 179 187 179 170 178 185 178 182 194 191 219 236 222 214 212 194 201 217 232 247 262 268 272 208 319 358 304 247 198 193 210 240 244 245 247 271 266 261 261
177 184 181 176 183 188 181 187 193 189 191 195 203 214 229 244 233 221 211 201 210 229 237 232 233 247 217 177 178 299 310 285 252 225 221 239 242 222 214 222 238 265 293
184 190 190 183 183 185 192 196 191 181 188 203 207 212 225 253 240 228 210 195 215 237 243 239 232 232 223 196 180 209 276 299 297 266 260 271 270 249 181 116 73 309 289
201 203 195 188 187 193 197 191 186 184 193 190 208 228 227 251 252 245 212 199 215 234 252 256 248 241 232 202 191 196 227 262 283 301 316 324 332 305 226 190 197 216 264
196 183 178 188 194 191 185 178 170 171 165 178 200 262 262 263 262 255 224 214 212 212 231 249 251 238 237 228 218 214 230 231 245 244 274 313 327 327 303 295 230 214 226
165 162 176 179 188 180 166 164 161 160 160 180 199 288 298 292 292 267 235 230 228 211 229 239 250 244 236 234 229 229 220 213 212 229 251 284 291 291 287 293 287 273 249
147 159 174 161 155 160 166 166 160 172 184 205 211 239 282 300 296 292 244 237 237 235 242 249 249 237 230 247 252 235 204 177 186 232 249 252 258 264 282 305 323 326 329
156 163 156 142 136 129 144 166 175 189 197 211 223 236 265 281 288 297 263 248 242 256 257 259 293 153 193 264 275 238 210 204 203 226 246 254 266 274 275 282 283 295 319
156 160 157 156 159 153 156 187 199 209 203 203 215 212 217 249 263 265 246 219 217 216 123 75 57 63 57 351 333 286 248 229 241 248 255 260 257 263 279 277 262 267 267
158 168 175 166 164 159 158 335 305 252 242 232 210 194 236 256 275 206 183 154 105 116 101 105 191 222 232 251 262 272 269 256 251 247 243 246 245 246 262 279 267 254 265
171 179 176 170 175 176 175 183 260 336 9 9 336 219 228 278 270 184 187 144 118 122 105 173 227 245 254 253 253 250 257 266 259 249 253 251 254 258 259 265 268 273 272
172 179 174 181 188 189 191 203 203 202 254 324 327 325 324 13 101 126 106 84 52 64 21 256 252 254 260 259 259 261 263 276 258 249 254 256 258 261 267 264 260 263 268
174 180 179 178 185 189 188 190 192 203 214 237 334 342 346 4 43 61 101 112 170 239 262 281 269 257 251 248 253 256 256 255 259 251 254 258 254 250 263 267 264 268 266
177 189 169 170 177 179 179 183 197 205 214 218 228 245 285 66 59 32 178 209 215 236 242 249 257 257 251 246 245 246 253 254 254 252 251 252 252 247 252 258 261 262 260
164 174 169 171 188 193 197 203 208 208 216 225 236 235 198 188 208 220 226 235 236 242 247 250 253 253 255 253 245 243 245 248 245 247 246 244 245 252 254 252 254 254 261
160 164 178 187 189 200 210 212 211 217 225 231 249 252 222 208 220 227 234 242 245 244 244 239 246 245 243 239 241 242 245 249 247 246 246 244 243 251 254 250 252 254 256
150 158 166 175 194 207 214 217 218 224 233 237 236 238 233 233 235 236 240 246 249 253 253 245 246 254 254 250 244 235 240 247 242 237 239 242 244 247 242 243 246 249 251
164 173 177 174 188 212 230 242 238 241 241 241 242 240 238 239 245 251 255 254 254 256 253 245 243 248 251 252 250 246 248 254 253 240 230 231 238 247 240 241 245 249 249
179 183 188 195 205 225 241 255 255 256 258 254 251 248 247 246 247 251 255 256 257 256 257 251 249 250 251 250 252 254 260 263 261 255 239 224 232 242 240 238 242 249 254
190 197 201 203 215 228 233 245 257 260 260 263 260 256 252 252 255 253 248 246 249 254 257 255 253 254 258 255 255 260 264 261 258 256 246 229 230 243 242 235 243 246 250
Height
1514 1515 1516 1517 1518 1519 1519 1520 1520 1520 1521 1521 1521 1521 1521 1521 1521 1521 1521 1520 1520 1520 1519 1519 1519 1519 1518 1518 1518 1518 1518 1518 1517 1517 1517 1517 1516 1516 1515 1514 1514 1513 1512
1512 1513 1514 1515 1516 1516 1517 1517 1518 1518 1518 1519 1519 1519 1519 1519 1519 1518 1518 1518 1518 1517 1517 1516 1516 1516 1516 1516 1516 1515 1515 1515 1515 1514 1514 1514 1514 1514 1513 1512 1511 1511 1510
1509 1510 1511 1512 1513 1513 1514 1514 1515 1515 1516 1516 1516 1516 1516 1516 1516 1516 1516 1516 1515 1515 1514 1514 1513 1513 1513 1513 1513 1513 1513 1513 1513 1513 1512 1512 1512 1511 1510 1510 1509 1508 1508
1506 1508 1508 1509 1510 1510 1511 1512 1512 1513 1513 1513 1514 1514 1514 1513 1513 1513 1513 1513 1512 1512 1512 1511 1511 1511 1510 1510 1510 1510 1510 1510 1510 1510 1510 1509 1509 1509 1508 1507 1506 1506 1505
1504 1505 1506 1507 1507 1508 1509 1509 1510 1511 1511 1511 1511 1511 1511 1510 1510 1510 1510 1509 1509 1509 1509 1508 1508 1508 1508 1508 1508 1508 1508 1508 1507 1507 1507 1506 1506 1506 1505 1505 1504 1503 1503
1501 1502 1503 1504 1505 1505 1506 1506 1507 1508 1508 1508 1508 1508 1508 1507 1507 1507 1507 1506 1506 1506 1505 1505 1505 1505 1505 1505 1505 1505 1505 1505 1504 1504 1504 1504 1503 1503 1503 1503 1502 1501 1500
1498 1499 1500 1501 1502 1502 1503 1503 1504 1504 1505 1505 1505 1505 1504 1504 1504 1504 1504 1503 1503 1502 1502 1502 1502 1502 1502 1502 1502 1502 1502 1501 1502 1502 1501 1501 1501 1501 1501 1500 1500 1499 1498
1495 1496 1497 1498 1498 1499 1500 1500 1501 1501 1502 1502 1501 1501 1501 1501 1501 1500 1500 1500 1499 1499 1499 1499 1499 1499 1499 1499 1499 1499 1498 1498 1498 1498 1499 1499 1499 1498 1498 1498 1497 1497 1496
1492 1493 1494 1495 1495 1496 1496 1497 1498 1498 1498 1498 1498 1498 1498 1498 1497 1497 1497 1496 1495 1495 1495 1495 1495 1496 1496 1496 1496 1495 1495 1495 1495 1495 1495 1495 1495 1495 1495 1495 1494 1494 1492
1489 1490 1491 1491 1492 1492 1493 1494 1494 1495 1495 1495 1495 1495 1495 1494 1494 1494 1493 1492 1491 1491 1491 1492 1492 1492 1492 1492 1492 1492 1492 1491 1492 1492 1492 1492 1492 1492 1492 1491 1491 1490 1490
1487 1487 1487 1488 1489 1489 1490 1490 1491 1491 1492 1492 1492 1492 1492 1491 1490 1490 1490 1489 1488 1488 1488 1488 1488 1488 1489 1489 1489 1489 1489 1489 1489 1489 1488 1488 1488 1488 1488 1488 1488 1487 1487
1484 1484 1485 1485 1485 1486 1487 1487 1488 1488 1488 1489 1489 1489 1489 1488 1487 1486 1486 1486 1485 1485 1484 1484 1485 1485 1485 1485 1485 1485 1486 1486 1485 1485 1485 1484 1484 1484 1484 1485 1484 1484 1484
1481 1481 1482 1482 1483 1483 1483 1484 1484 1485 1485 1485 1486 1485 1485 1485 1484 1483 1483 1482 1482 1482 1481 1481 1482 1482 1482 1482 1482 1482 1482 1482 1482 1482 1481 1481 1481 1481 1481 1481 1481 1481 1480
1478 1478 1479 1479 1480 1480 1481 1481 1481 1482 1482 1482 1483 1482 1482 1482 1481 1480 1479 1479 1479 1479 1478 1478 1479 1479 1479 1479 1479 1479 1479 1479 1479 1479 1478 1478 1478 1478 1477 1477 1477 1476 1476
1475 1476 1476 1477 1477 1478 1478 1479 1479 1479 1480 1480 1480 1480 1480 1479 1478 1478 1477 1476 1476 1476 1476 1476 1476 1476 1476 1476 1475 1476 1476 1476 1476 1475 1475 1474 1474 1474 1473 1473 1473 1473 1472
1473 1474 1474 1474 1475 1475 1475 1476 1476 1477 1477 1478 1478 1478 1477 1477 1476 1475 1475 1474 1474 1474 1473 1473 1473 1473 1473 1473 1473 1472 1472 1472 1472 1472 1472 1472 1471 1470 1470 1470 1470 1469 1468
1471 1471 1472 1472 1472 1472 1473 1473 1473 1474 1475 1475 1475 1475 1475 1474 1473 1473 1472 1472 1472 1471 1471 1470 1470 1470 1470 1470 1470 1470 1469 1469 1469 1469 1468 1468 1468 1467 1466 1466 1466 1465 1465
1469 1469 1470 1470 1470 1470 1470 1471 1471 1471 1471 1471 1472 1472 1472 1472 1471 1471 1470 1470 1469 1468 1468 1468 1468 1468 1468 1468 1467 1467 1466 1466 1466 1465 1465 1464 1464 1463 1462 1462 1461 1461 1460
1467 1467 1467 1468 1468 1468 1468 1468 1469 1469 1469 1469 1469 1469 1470 1469 1469 1469 1468 1467 1466 1466 1466 1466 1466 1465 1465 1465 1464 1464 1463 1463 1462 1462 1461 1461 1460 1459 1458 1458 1458 1457 1457
1464 1465 1465 1466 1466 1466 1466 1466 1466 1466 1467 1466 1466 1467 1467 1466 1466 1465 1465 1464 1464 1464 1464 1464 1463 1463 1462 1462 1461 1461 1460 1459 1458 1458 1457 1457 1456 1455 1454 1454 1454 1453 1453
1462 1462 1463 1463 1464 1464 1464 1464 1464 1464 1464 1464 1464 1464 1464 1464 1463 1463 1462 1462 1461 1461 1461 1461 1461 1460 1459 1459 1458 1457 1456 1455 1454 1454 1453 1452 1452 1451 1450 1450 1450 1449 1449
1459 1460 1460 1461 1461 1461 1462 1462 1462 1462 1462 1462 1461 1462 1461 1461 1460 1460 1459 1459 1459 1459 1459 1458 1458 1457 1456 1455 1455 1453 1452 1451 1451 1450 1449 1448 1447 1447 1446 1446 1445 1445 1445
1457 1458 1458 1458 1459 1459 1459 1460 1460 1459 1459 1459 1459 1459 1458 1458 1457 1457 1456 1456 1455 1455 1455 1454 1454 1453 1452 1451 1451 1449 1448 1447 1447 1446 1445 1444 1443 1443 1442 1442 1441 1441 1441
1455 1455 1456 1456 1456 1456 1457 1457 1457 1457 1457 1456 1456 1455 1455 1454 1454 1453 1453 1452 1452 1452 1451 1450 1449 1449 1448 1447 1446 1445 1444 1444 1443 1442 1441 1440 1439 1438 1438 1437 1437 1437 1437
1453 1453 1453 1453 1453 1454 1454 1454 1454 1454 1454 1453 1453 1452 1452 1451 1450 1450 1449 1449 1448 1447 1447 1446 1445 1444 1443 1442 1441 1440 1440 1439 1438 1438 1437 1435 1434 1433 1433 1433 1432 1432 1433
1451 1451 1451 1451 1451 1451 1451 1451 1451 1451 1450 1450 1449 1449 1448 1447 1447 1446 1445 1444 1444 1443 1442 1441 1440 1440 1439 1438 1437 1436 1435 1434 1434 1433 1432 1431 1430 1429 1428 1428 1428 1428 1428